Weather Roundup
Issued by NWS

Home | Current Version | Previous Version | Text Only | Print | Product List | Glossary On
Versions: 1 2 3 4 5 6 7 8 9 10 11 12 13 14 15 16 17 18 19 20 21 22 23 24 25 26 27 28 29 30 31 32 33 34 35 36 37 38 39 40 41 42 43 44 45 46 47 48 49 50
000
NZUS93 KARX 230210
HRRWXR

CURRENT HOURLY OBSERVATIONS ACROSS
MUCH OF THE UPPER MISSISSIPPI VALLEY
NATIONAL WEATHER SERVICE LA CROSSE WI
900 PM CDT WED OCT 22 2014


...SOUTHEAST MINNESOTA...


CITY           SKY/WX    TMP DP  RH WIND       PRES   REMARKS
ROCHESTER      CLOUDY    53  38  56 S15G25    30.11F
ROCHESTER/MAYO CLOUDY    55  35  48 SE12G23   30.11S
WINONA         PTCLDY    54  39  58 SE7       30.15S
AUSTIN         CLOUDY    54  39  58 S10G18    30.10S
ALBERT LEA     CLOUDY    55  43  62 S13G20    30.07F
DODGE CENTER   CLOUDY    55  39  54 S20G25    30.08F
PRESTON        CLOUDY    52  37  57 SE13G18   30.14F
OWATONNA       MOCLDY    55  39  54 SE20G28   30.04F
FARIBAULT      MOCLDY    55  41  58 SE12G25   30.05S
$$

...ELSEWHERE IN MINNESOTA...


CITY           SKY/WX    TMP DP  RH WIND       PRES   REMARKS
MINNEAPOLIS    CLOUDY    56  40  55 S12       30.05S
INTNL FALLS    CLOUDY    55  41  59 S7        29.94S
DULUTH         FAIR      52  35  52 S10       30.05S
RED WING       NOT AVBL
REDWOOD FALLS  LGT RAIN  61  49  64 S16       29.98R
MANKATO        CLOUDY    57  39  51 S15       30.05R
WORTHINGTON    CLOUDY    57  55  94 S12       30.02S
FAIRMONT       CLOUDY    57  43  58 S15G21    30.06R
$$

...SOUTHWEST WISCONSIN...


CITY           SKY/WX    TMP DP  RH WIND       PRES   REMARKS
LA CROSSE      MOCLDY    55  37  50 S8        30.16F
PRAIRIE DU CHI CLEAR     49  36  61 E8        30.18F
BOSCOBEL       CLEAR     38  34  85 CALM      30.21S
LONE ROCK      CLEAR     44  34  67 SE7       30.22S
PLATTEVILLE    CLEAR     46  35  63 SE8       30.22S
FORT MC COY    CLEAR     40  34  77 CALM      30.19S
CAMP DOUGLAS   PTCLDY    45  37  76 SE5       30.19S
VIROQUA        FAIR      48  36  63 S7        30.18S
WIS DELLS      CLEAR     42  35  77 SE5       30.21F
$$

...ELSEWHERE IN WISCONSIN...


CITY           SKY/WX    TMP DP  RH WIND       PRES   REMARKS
MILWAUKEE      PTCLDY    43  36  76 SE5       30.27S
MADISON        PTCLDY    46  36  68 SE8       30.24R
GREEN BAY      CLEAR     39  36  89 SE5       30.26S
EAU CLAIRE     CLOUDY    56  36  47 S8        30.13S
BLACK RVR FLS  MOCLDY    40  34  79 CALM      30.17S
MEDFORD        CLEAR     45  35  68 SE8       30.17S
WAUSAU         CLEAR     43  35  73 SE3       30.19S
WIS RAPIDS     CLEAR     45  35  68 SE8       30.21F
MARSHFIELD     CLEAR     45  35  68 S7        30.18S
RICE LAKE      MOCLDY    54  35  50 SE12      30.11F
$$

...NORTHEAST IOWA...


CITY           SKY/WX    TMP DP  RH WIND       PRES   REMARKS
DECORAH        CLOUDY    50  37  62 S6G13     30.15F
MASON CITY     MOCLDY    54  42  64 SE16G24   30.10F
CHARLES CITY   CLOUDY    55  39  54 SE15      30.13F
OELWEIN        MOCLDY    50  39  66 SE10      30.17S
$$

...ELSEWHERE IN IOWA...


CITY           SKY/WX    TMP DP  RH WIND       PRES   REMARKS
DES MOINES     MOCLDY    59  45  59 SE13      30.12S
IOWA CITY      CLEAR     46  39  76 SE5       30.21S
FORT DODGE     MOCLDY    57  45  62 S13G20    30.07S
$$

...NORTHERN ILLINOIS...


CITY           SKY/WX    TMP DP  RH WIND       PRES   REMARKS
CHICAGO-OHARE  CLEAR     42  36  79 SE5       30.26S
CHICAGO-MIDWAY CLEAR     48  37  65 E5        30.27S
MOLINE         CLEAR     39  35  86 CALM      30.24R
ROCKFORD       CLEAR     45  35  68 SE5       30.27R
PEORIA         CLEAR     51  36  56 SE5       30.25R
$$

NOTE: "FAIR" INDICATES FEW OR NO CLOUDS BELOW 12,000 FEET WITH NO
SIGNIFICANT WEATHER AND/OR OBSTRUCTIONS TO VISIBILITY. WIND
SPEEDS ARE IN MILES-PER-HOUR.



USA.gov is the U.S. government's official web portal to all federal, state and local government web resources and services.